Weather History for KNTD - September, 2013

Change the Weather History Date:

Monday, September 16, 2013

  Actual Average Record
Temperature  
Mean Temperature 65 °F -  
Max Temperature 77 °F 71 °F 86 °F (2014)
Min Temperature 55 °F 57 °F 32 °F (2010)
Growing Degree Days 15 (Base 50)    
Moisture  
Dew Point 59 °F    
Average Humidity 81    
Maximum Humidity 93    
Minimum Humidity 58    
Precipitation  
Precipitation 0.00 in - - ()
Sea Level Pressure  
Sea Level Pressure 29.79 in    
Wind  
Wind Speed 4 mph (NW)    
Max Wind Speed 14 mph    
Max Gust Speed -    
Visibility 7 miles    
Events      
Averages and records for this station are not official NWS values.
T = Trace of Precipitation, MM = Missing Value Source: NWS Daily Summary

Daily Weather History Graph

Daily Weather History Graph

Search for Another Location

Airport or City:

Trip Planner

Search our weather history database for the weather conditions in past years. The results will help you decide how hot, cold, wet, or windy it might be!

Date:

Astronomy

Sep. 16, 2013 Rise Set
Actual Time 6:40 AM PDT 7:01 PM PDT
Civil Twilight 6:15 AM PDT 7:26 PM PDT
Nautical Twilight 5:46 AM PDT 7:55 PM PDT
Astronomical Twilight 5:16 AM PDT 8:25 PM PDT
Moon 5:08 PM PDT (9/16) 3:38 AM PDT (9/16)
Length of Visible Light 13h 10m
Length of Day
12h 20m
Waxing Gibbous, 91% of the Moon is Illuminated
Sep 16
Waxing Gibbous
Sep 19
Full
Sep 26
Last Quarter
Oct 4
New
Oct 11
First Quarter

Hourly Weather History & Observations

Time (PDT) Temp. Dew Point Humidity Pressure Visibility Wind Dir Wind Speed Gust Speed Precip Events Conditions
12:54 AM 61.0 °F 57.9 °F 90% - - Calm Calm - N/A   Clear
1:54 AM 61.0 °F 57.9 °F 90% - - Calm Calm - N/A   Clear
2:54 AM 62.1 °F 59.0 °F 90% - - NNE 3.5 mph - N/A   Clear
3:54 AM 61.0 °F 57.9 °F 90% - - NNE 3.5 mph - N/A   Clear
4:54 AM 61.0 °F 57.0 °F 87% - - North 3.5 mph - N/A   Clear
5:54 AM 62.1 °F 57.0 °F 84% 29.79 in 7.0 mi NNW 3.5 mph - N/A   Clear
6:54 AM 55.9 °F 54.0 °F 93% 29.81 in 7.0 mi NNW 3.5 mph - N/A   Clear
7:38 AM 62.6 °F 57.2 °F 82% 29.82 in 7.0 mi Calm Calm - N/A   Partly Cloudy
7:54 AM 63.0 °F 57.9 °F 84% 29.83 in 7.0 mi Calm Calm - N/A   Partly Cloudy
8:54 AM 68.0 °F 61.0 °F 78% 29.82 in 7.0 mi WNW 4.6 mph - N/A   Partly Cloudy
9:54 AM 71.1 °F 62.1 °F 73% 29.82 in 7.0 mi West 10.4 mph - N/A   Partly Cloudy
10:54 AM 73.0 °F 61.0 °F 66% 29.84 in 7.0 mi WNW 10.4 mph - N/A   Clear
11:54 AM 73.9 °F 61.0 °F 64% 29.84 in 7.0 mi West 10.4 mph - N/A   Clear
12:54 PM 75.9 °F 60.1 °F 58% 29.82 in 7.0 mi NW 8.1 mph - N/A   Clear
1:54 PM 75.0 °F 60.1 °F 60% 29.81 in 7.0 mi West 10.4 mph - N/A   Clear
2:54 PM 69.6 °F 61.0 °F 74% 29.81 in 7.0 mi West 13.8 mph - N/A   Clear
3:54 PM 69.6 °F 61.0 °F 74% 29.76 in 7.0 mi WNW 5.8 mph - N/A   Clear
4:54 PM 69.6 °F 61.0 °F 74% 29.75 in 7.0 mi West 9.2 mph - N/A   Partly Cloudy
5:54 PM 66.6 °F 60.1 °F 80% 29.75 in 7.0 mi WNW 8.1 mph - N/A   Partly Cloudy
6:54 PM 64.0 °F 59.0 °F 84% 29.75 in 7.0 mi WNW 8.1 mph - N/A   Scattered Clouds
7:54 PM 64.0 °F 59.0 °F 84% 29.76 in 6.0 mi WNW 4.6 mph - N/A   Haze
8:54 PM 63.0 °F 59.0 °F 87% 29.76 in 6.0 mi NNW 4.6 mph - N/A   Scattered Clouds
9:54 PM 63.0 °F 59.0 °F 87% 29.78 in 7.0 mi NW 3.5 mph - N/A   Partly Cloudy
10:54 PM 62.1 °F 59.0 °F 90% 29.78 in 7.0 mi NNW 3.5 mph - N/A   Partly Cloudy
11:54 PM 60.1 °F 57.0 °F 90% - - Calm Calm - N/A   Clear